Back to Top

Language: 

My Weather Underground Personal Weather Station Historical Data with Graphs...

Delerius Weather Station Historical Data
Daily Summary for March 28, 2017 Units:  English    Metric   Both
« Previous Day
Next Day »
Daily Weekly Monthly Yearly Custom
  High: Low: Average:
Temperature: 57.7 °F 42.4 °F 48.8 °F
Dew Point: 49.0 °F 39.8 °F 44.2 °F
Humidity: 95 % 69 % 85 %
Wind Speed: 10.0 mph 0.0 mph 5 mph
Wind Gust: 20.0 mph - -
Wind:- - SSE
Pressure: 30.16 in 30.00 in -
Precipitation: 0.00 in    
Historical Graphs
 
 
Tabular Data for March 28, 2017
Time Temperature Dew Point Pressure Wind Wind Speed Wind Gust Humidity Rainfall Rate (Hourly) solar Conditions
00:00 44.6 °F 41.3 °F 30.16 in East 2.0 mph 7.0 mph 88 % 0.00 in 0 W/m2
00:05 44.4 °F 41.1 °F 30.16 in East 1.0 mph 6.0 mph 88 % 0.00 in 0 W/m2
00:10 44.4 °F 41.1 °F 30.16 in East 2.0 mph 6.0 mph 88 % 0.00 in 0 W/m2
00:15 44.4 °F 41.1 °F 30.16 in East 2.0 mph 5.0 mph 88 % 0.00 in 0 W/m2
00:20 44.4 °F 41.1 °F 30.16 in East 1.0 mph 5.0 mph 88 % 0.00 in 0 W/m2
00:25 44.2 °F 41.2 °F 30.16 in ESE 2.0 mph 6.0 mph 89 % 0.00 in 0 W/m2
00:30 44.2 °F 40.9 °F 30.16 in ESE 2.0 mph 6.0 mph 88 % 0.00 in 0 W/m2
00:35 44.2 °F 40.9 °F 30.15 in East 1.0 mph 6.0 mph 88 % 0.00 in 0 W/m2
00:40 44.2 °F 40.9 °F 30.15 in East 1.0 mph 6.0 mph 88 % 0.00 in 0 W/m2
00:43 44.2 °F 40.9 °F 30.15 in East 2.0 mph 6.0 mph 88 % 0.00 in 0 W/m2
00:48 44.1 °F 40.7 °F 30.15 in East 2.0 mph 5.0 mph 88 % 0.00 in 0 W/m2
00:53 44.1 °F 40.7 °F 30.15 in East 2.0 mph 6.0 mph 88 % 0.00 in 0 W/m2
00:58 44.1 °F 40.7 °F 30.15 in ESE 2.0 mph 6.0 mph 88 % 0.00 in 0 W/m2
01:03 43.9 °F 40.6 °F 30.15 in East 2.0 mph 6.0 mph 88 % 0.00 in 0 W/m2
01:08 43.9 °F 40.6 °F 30.15 in East 2.0 mph 6.0 mph 88 % 0.00 in 0 W/m2
01:13 43.9 °F 40.6 °F 30.15 in East 2.0 mph 6.0 mph 88 % 0.00 in 0 W/m2
01:18 43.7 °F 40.4 °F 30.14 in East 3.0 mph 7.0 mph 88 % 0.00 in 0 W/m2
01:23 43.7 °F 40.4 °F 30.14 in East 3.0 mph 7.0 mph 88 % 0.00 in 0 W/m2
01:28 43.5 °F 40.2 °F 30.14 in East 2.0 mph 7.0 mph 88 % 0.00 in 0 W/m2
01:33 43.5 °F 40.2 °F 30.13 in East 2.0 mph 6.0 mph 88 % 0.00 in 0 W/m2
01:38 43.3 °F 40.0 °F 30.13 in East 2.0 mph 6.0 mph 88 % 0.00 in 0 W/m2
01:43 43.3 °F 40.0 °F 30.13 in ESE 2.0 mph 7.0 mph 88 % 0.00 in 0 W/m2
01:48 43.3 °F 40.0 °F 30.13 in ESE 2.0 mph 7.0 mph 88 % 0.00 in 0 W/m2
01:53 43.3 °F 40.3 °F 30.13 in ESE 2.0 mph 6.0 mph 89 % 0.00 in 0 W/m2
01:58 43.3 °F 40.3 °F 30.13 in ESE 2.0 mph 6.0 mph 89 % 0.00 in 0 W/m2
02:03 43.3 °F 40.3 °F 30.13 in ESE 2.0 mph 6.0 mph 89 % 0.00 in 0 W/m2
02:08 43.3 °F 40.3 °F 30.12 in ESE 1.0 mph 6.0 mph 89 % 0.00 in 0 W/m2
02:13 43.2 °F 40.1 °F 30.13 in ESE 2.0 mph 5.0 mph 89 % 0.00 in 0 W/m2
02:18 43.2 °F 40.1 °F 30.13 in ESE 2.0 mph 5.0 mph 89 % 0.00 in 0 W/m2
02:23 43.2 °F 40.1 °F 30.13 in ESE 2.0 mph 6.0 mph 89 % 0.00 in 0 W/m2
02:28 43.2 °F 40.1 °F 30.13 in ESE 2.0 mph 6.0 mph 89 % 0.00 in 0 W/m2
02:33 43.2 °F 40.1 °F 30.12 in ESE 1.0 mph 6.0 mph 89 % 0.00 in 0 W/m2
02:38 43.2 °F 40.1 °F 30.13 in ESE 1.0 mph 6.0 mph 89 % 0.00 in 0 W/m2
02:43 43.2 °F 40.1 °F 30.13 in ESE 1.0 mph 5.0 mph 89 % 0.00 in 0 W/m2
02:48 43.2 °F 40.1 °F 30.12 in ESE 2.0 mph 5.0 mph 89 % 0.00 in 0 W/m2
02:53 43.2 °F 40.1 °F 30.12 in SE 3.0 mph 5.0 mph 89 % 0.00 in 0 W/m2
02:58 43.2 °F 39.8 °F 30.12 in SE 4.0 mph 6.0 mph 88 % 0.00 in 0 W/m2
03:03 43.2 °F 39.8 °F 30.12 in SE 3.0 mph 6.0 mph 88 % 0.00 in 0 W/m2
03:08 43.2 °F 39.8 °F 30.12 in SE 4.0 mph 7.0 mph 88 % 0.00 in 0 W/m2
03:13 43.3 °F 40.0 °F 30.12 in SSE 2.0 mph 7.0 mph 88 % 0.00 in 0 W/m2
03:18 43.3 °F 40.0 °F 30.12 in SSE 1.0 mph 3.0 mph 88 % 0.00 in 0 W/m2
03:24 43.3 °F 40.0 °F 30.12 in Calm   3.0 mph 88 % 0.00 in 0 W/m2
03:29 43.3 °F 40.0 °F 30.12 in SE 1.0 mph 4.0 mph 88 % 0.00 in 0 W/m2
03:34 43.3 °F 40.0 °F 30.12 in SE 2.0 mph 5.0 mph 88 % 0.00 in 0 W/m2
03:39 43.3 °F 40.0 °F 30.12 in SSE 2.0 mph 5.0 mph 88 % 0.00 in 0 W/m2
03:43 43.3 °F 40.3 °F 30.12 in SSE 1.0 mph 5.0 mph 89 % 0.00 in 0 W/m2
03:48 43.5 °F 40.5 °F 30.12 in South 1.0 mph 9.0 mph 89 % 0.00 in 0 W/m2
03:54 43.5 °F 40.5 °F 30.12 in South 2.0 mph 9.0 mph 89 % 0.00 in 0 W/m2
03:59 43.5 °F 40.8 °F 30.12 in SSE 2.0 mph 6.0 mph 90 % 0.00 in 0 W/m2
04:04 43.5 °F 40.8 °F 30.11 in SSE 2.0 mph 5.0 mph 90 % 0.00 in 0 W/m2
04:09 43.7 °F 41.0 °F 30.11 in SE 2.0 mph 5.0 mph 90 % 0.00 in 0 W/m2
04:14 43.7 °F 41.0 °F 30.11 in SE 3.0 mph 5.0 mph 90 % 0.00 in 0 W/m2
04:19 43.7 °F 41.0 °F 30.11 in SE 2.0 mph 5.0 mph 90 % 0.00 in 0 W/m2
04:24 43.5 °F 41.1 °F 30.11 in ESE 1.0 mph 3.0 mph 91 % 0.00 in 0 W/m2
04:29 43.7 °F 41.2 °F 30.11 in SE 1.0 mph 7.0 mph 91 % 0.00 in 0 W/m2
04:34 43.7 °F 41.2 °F 30.10 in SSE 2.0 mph 7.0 mph 91 % 0.00 in 0 W/m2
04:39 43.7 °F 41.2 °F 30.10 in South 2.0 mph 6.0 mph 91 % 0.00 in 0 W/m2
04:44 43.7 °F 41.2 °F 30.10 in SSE 1.0 mph 4.0 mph 91 % 0.00 in 0 W/m2
04:49 43.7 °F 41.2 °F 30.10 in South 2.0 mph 7.0 mph 91 % 0.00 in 0 W/m2
04:54 43.7 °F 41.2 °F 30.10 in South 3.0 mph 7.0 mph 91 % 0.00 in 0 W/m2
04:59 43.5 °F 41.1 °F 30.10 in South 2.0 mph 7.0 mph 91 % 0.00 in 0 W/m2
05:04 43.7 °F 41.2 °F 30.10 in SSE 1.0 mph 6.0 mph 91 % 0.00 in 0 W/m2
05:09 43.5 °F 41.4 °F 30.10 in SSE 3.0 mph 10.0 mph 92 % 0.00 in 0 W/m2
05:14 43.5 °F 41.4 °F 30.10 in South 5.0 mph 10.0 mph 92 % 0.00 in 0 W/m2
05:19 43.5 °F 41.4 °F 30.10 in South 3.0 mph 8.0 mph 92 % 0.00 in 0 W/m2
05:24 43.7 °F 41.5 °F 30.10 in SSE 2.0 mph 7.0 mph 92 % 0.00 in 0 W/m2
05:29 43.5 °F 41.4 °F 30.10 in SSE 4.0 mph 8.0 mph 92 % 0.00 in 0 W/m2
05:34 43.5 °F 41.4 °F 30.10 in SSE 5.0 mph 9.0 mph 92 % 0.00 in 0 W/m2
05:39 43.5 °F 41.4 °F 30.10 in South 5.0 mph 10.0 mph 92 % 0.00 in 0 W/m2
05:44 43.5 °F 41.6 °F 30.10 in South 3.0 mph 10.0 mph 93 % 0.00 in 0 W/m2
05:49 43.5 °F 41.6 °F 30.10 in SSE 3.0 mph 7.0 mph 93 % 0.00 in 0 W/m2
05:54 43.5 °F 41.6 °F 30.10 in SSE 3.0 mph 7.0 mph 93 % 0.00 in 0 W/m2
05:59 43.5 °F 41.6 °F 30.10 in SSE 3.0 mph 7.0 mph 93 % 0.00 in 0 W/m2
06:04 43.5 °F 41.6 °F 30.10 in SSE 4.0 mph 8.0 mph 93 % 0.00 in 0 W/m2
06:09 43.5 °F 41.6 °F 30.10 in SSE 5.0 mph 10.0 mph 93 % 0.00 in 0 W/m2
06:14 43.5 °F 41.6 °F 30.10 in SSE 4.0 mph 10.0 mph 93 % 0.00 in 0 W/m2
06:19 43.5 °F 41.6 °F 30.10 in SSE 3.0 mph 7.0 mph 93 % 0.00 in 0 W/m2
06:24 43.3 °F 41.5 °F 30.10 in SSE 4.0 mph 10.0 mph 93 % 0.00 in 0 W/m2
06:29 43.3 °F 41.5 °F 30.10 in South 5.0 mph 10.0 mph 93 % 0.00 in 0 W/m2
06:34 43.3 °F 41.5 °F 30.10 in SSW 5.0 mph 9.0 mph 93 % 0.00 in 0 W/m2
06:39 43.3 °F 41.7 °F 30.09 in SSW 3.0 mph 7.0 mph 94 % 0.00 in 0 W/m2
06:44 43.3 °F 41.7 °F 30.09 in SSW 3.0 mph 7.0 mph 94 % 0.00 in 0 W/m2
06:49 43.3 °F 41.7 °F 30.09 in SSW 2.0 mph 6.0 mph 94 % 0.00 in 0 W/m2
06:54 43.3 °F 41.7 °F 30.09 in SSE 3.0 mph 6.0 mph 94 % 0.00 in 0 W/m2
06:59 43.3 °F 41.7 °F 30.09 in SE 4.0 mph 8.0 mph 94 % 0.00 in 0 W/m2
07:04 43.2 °F 41.6 °F 30.09 in SSE 4.0 mph 8.0 mph 94 % 0.00 in 5 W/m2
07:09 43.2 °F 41.6 °F 30.09 in South 3.0 mph 7.0 mph 94 % 0.00 in 5 W/m2
07:14 43.2 °F 41.6 °F 30.09 in SSE 3.0 mph 5.0 mph 94 % 0.00 in 7 W/m2
07:19 43.2 °F 41.6 °F 30.09 in SE 4.0 mph 7.0 mph 94 % 0.00 in 9 W/m2
07:24 43.2 °F 41.6 °F 30.08 in SE 5.0 mph 8.0 mph 94 % 0.00 in 11 W/m2
07:29 43.0 °F 41.4 °F 30.08 in SE 4.0 mph 8.0 mph 94 % 0.00 in 12 W/m2
07:34 43.0 °F 41.4 °F 30.08 in SE 3.0 mph 7.0 mph 94 % 0.00 in 14 W/m2
07:39 43.0 °F 41.4 °F 30.08 in SE 4.0 mph 8.0 mph 94 % 0.00 in 18 W/m2
07:44 43.0 °F 41.4 °F 30.08 in SE 5.0 mph 8.0 mph 94 % 0.00 in 18 W/m2
07:49 42.8 °F 41.2 °F 30.08 in SE 5.0 mph 9.0 mph 94 % 0.00 in 16 W/m2
07:54 42.6 °F 41.3 °F 30.08 in SSE 5.0 mph 10.0 mph 95 % 0.00 in 19 W/m2
07:59 42.6 °F 41.3 °F 30.08 in SE 5.0 mph 10.0 mph 95 % 0.00 in 25 W/m2
08:04 42.4 °F 41.1 °F 30.08 in SE 6.0 mph 10.0 mph 95 % 0.00 in 30 W/m2
08:09 42.4 °F 41.1 °F 30.08 in SSE 5.0 mph 8.0 mph 95 % 0.00 in 33 W/m2
08:14 42.4 °F 41.1 °F 30.08 in SSE 5.0 mph 8.0 mph 95 % 0.00 in 28 W/m2
08:19 42.4 °F 41.1 °F 30.08 in South 5.0 mph 9.0 mph 95 % 0.00 in 33 W/m2
08:24 42.4 °F 41.1 °F 30.08 in South 5.0 mph 10.0 mph 95 % 0.00 in 33 W/m2
08:29 42.6 °F 41.3 °F 30.08 in South 5.0 mph 10.0 mph 95 % 0.00 in 33 W/m2
08:34 42.6 °F 41.3 °F 30.08 in South 4.0 mph 8.0 mph 95 % 0.00 in 30 W/m2
08:39 42.6 °F 41.3 °F 30.08 in SSE 4.0 mph 8.0 mph 95 % 0.00 in 25 W/m2
08:44 42.6 °F 41.3 °F 30.08 in SE 5.0 mph 8.0 mph 95 % 0.00 in 42 W/m2
08:49 42.6 °F 41.3 °F 30.08 in SE 5.0 mph 9.0 mph 95 % 0.00 in 49 W/m2
08:54 42.6 °F 41.3 °F 30.08 in SE 6.0 mph 11.0 mph 95 % 0.00 in 46 W/m2
08:59 42.6 °F 41.3 °F 30.08 in SSE 6.0 mph 11.0 mph 95 % 0.00 in 46 W/m2
09:04 42.6 °F 41.3 °F 30.08 in SSE 5.0 mph 10.0 mph 95 % 0.00 in 46 W/m2
09:10 42.8 °F 41.5 °F 30.08 in SSE 5.0 mph 10.0 mph 95 % 0.00 in 53 W/m2
09:15 42.8 °F 41.5 °F 30.08 in SSE 5.0 mph 10.0 mph 95 % 0.00 in 65 W/m2
09:20 43.0 °F 41.6 °F 30.08 in SSE 6.0 mph 10.0 mph 95 % 0.00 in 65 W/m2
09:25 43.0 °F 41.6 °F 30.08 in SSE 5.0 mph 8.0 mph 95 % 0.00 in 67 W/m2
09:30 43.0 °F 41.6 °F 30.08 in SSE 4.0 mph 8.0 mph 95 % 0.00 in 72 W/m2
09:35 43.2 °F 41.8 °F 30.08 in SSE 3.0 mph 6.0 mph 95 % 0.00 in 67 W/m2
09:40 43.3 °F 42.0 °F 30.08 in SSE 3.0 mph 8.0 mph 95 % 0.00 in 46 W/m2
09:45 43.2 °F 41.8 °F 30.08 in SSE 4.0 mph 8.0 mph 95 % 0.00 in 107 W/m2
09:50 43.3 °F 42.0 °F 30.08 in SE 6.0 mph 9.0 mph 95 % 0.00 in 90 W/m2
09:55 43.3 °F 42.0 °F 30.08 in SE 6.0 mph 9.0 mph 95 % 0.00 in 88 W/m2
10:00 43.3 °F 42.0 °F 30.08 in SE 5.0 mph 9.0 mph 95 % 0.00 in 111 W/m2
10:05 43.3 °F 42.0 °F 30.08 in SE 6.0 mph 9.0 mph 95 % 0.00 in 113 W/m2
10:10 43.3 °F 42.0 °F 30.08 in SE 6.0 mph 10.0 mph 95 % 0.00 in 132 W/m2
10:15 43.5 °F 42.2 °F 30.08 in SSE 5.0 mph 10.0 mph 95 % 0.00 in 141 W/m2
10:20 43.9 °F 42.5 °F 30.08 in SSE 5.0 mph 9.0 mph 95 % 0.00 in 156 W/m2
10:25 43.9 °F 42.3 °F 30.08 in SSE 6.0 mph 10.0 mph 94 % 0.00 in 162 W/m2
10:30 43.9 °F 42.3 °F 30.08 in SSE 7.0 mph 10.0 mph 94 % 0.00 in 155 W/m2
10:35 44.1 °F 42.4 °F 30.08 in SE 7.0 mph 11.0 mph 94 % 0.00 in 179 W/m2
10:40 44.1 °F 42.4 °F 30.08 in SSE 7.0 mph 11.0 mph 94 % 0.00 in 176 W/m2
10:45 44.2 °F 42.3 °F 30.08 in SSE 6.0 mph 11.0 mph 93 % 0.00 in 183 W/m2
10:50 44.4 °F 42.5 °F 30.08 in SSE 6.0 mph 9.0 mph 93 % 0.00 in 199 W/m2
10:55 44.8 °F 42.9 °F 30.08 in SE 6.0 mph 11.0 mph 93 % 0.00 in 172 W/m2
11:00 45.0 °F 43.1 °F 30.08 in SE 6.0 mph 11.0 mph 93 % 0.00 in 171 W/m2
11:05 45.0 °F 42.8 °F 30.08 in SSE 6.0 mph 11.0 mph 92 % 0.00 in 192 W/m2
11:10 45.0 °F 42.8 °F 30.08 in SE 7.0 mph 11.0 mph 92 % 0.00 in 250 W/m2
11:15 45.1 °F 43.0 °F 30.08 in SSE 7.0 mph 11.0 mph 92 % 0.00 in 262 W/m2
11:20 45.1 °F 43.0 °F 30.08 in SSE 6.0 mph 11.0 mph 92 % 0.00 in 223 W/m2
11:25 45.3 °F 42.8 °F 30.08 in SSE 6.0 mph 11.0 mph 91 % 0.00 in 260 W/m2
11:30 45.5 °F 43.0 °F 30.08 in SE 7.0 mph 13.0 mph 91 % 0.00 in 297 W/m2
11:35 45.9 °F 43.4 °F 30.08 in SE 7.0 mph 13.0 mph 91 % 0.00 in 304 W/m2
11:40 46.0 °F 43.3 °F 30.08 in SSE 7.0 mph 10.0 mph 90 % 0.00 in 327 W/m2
11:45 46.4 °F 43.6 °F 30.08 in SSE 6.0 mph 10.0 mph 90 % 0.00 in 403 W/m2
11:51 46.8 °F 43.7 °F 30.08 in SSE 7.0 mph 13.0 mph 89 % 0.00 in 364 W/m2
11:56 47.1 °F 43.7 °F 30.07 in SE 8.0 mph 13.0 mph 88 % 0.00 in 336 W/m2
11:58 47.3 °F 43.9 °F 30.07 in SE 8.0 mph 12.0 mph 88 % 0.00 in 670 W/m2
12:03 47.8 °F 44.2 °F 30.07 in SE 7.0 mph 12.0 mph 87 % 0.00 in 404 W/m2
12:08 48.4 °F 44.7 °F 30.07 in SE 7.0 mph 12.0 mph 87 % 0.00 in 374 W/m2
12:13 48.7 °F 44.7 °F 30.07 in SE 6.0 mph 13.0 mph 86 % 0.00 in 737 W/m2
12:18 48.9 °F 44.6 °F 30.08 in SE 7.0 mph 13.0 mph 85 % 0.00 in 664 W/m2
12:23 49.3 °F 44.6 °F 30.07 in SSE 8.0 mph 12.0 mph 84 % 0.00 in 724 W/m2
12:28 49.5 °F 44.5 °F 30.07 in SSE 8.0 mph 12.0 mph 83 % 0.00 in 294 W/m2
12:33 49.8 °F 45.2 °F 30.07 in SE 8.0 mph 13.0 mph 84 % 0.00 in 635 W/m2
12:38 50.2 °F 45.2 °F 30.06 in SE 8.0 mph 13.0 mph 83 % 0.00 in 686 W/m2
12:43 50.5 °F 45.2 °F 30.06 in SE 8.0 mph 13.0 mph 82 % 0.00 in 686 W/m2
12:48 50.7 °F 45.1 °F 30.06 in SE 7.0 mph 11.0 mph 81 % 0.00 in 691 W/m2
12:53 51.3 °F 46.0 °F 30.05 in SE 7.0 mph 11.0 mph 82 % 0.00 in 608 W/m2
12:58 51.8 °F 45.8 °F 30.05 in SE 6.0 mph 13.0 mph 80 % 0.00 in 538 W/m2
13:03 52.2 °F 46.2 °F 30.06 in SE 7.0 mph 13.0 mph 80 % 0.00 in 670 W/m2
13:08 52.3 °F 46.0 °F 30.06 in SE 8.0 mph 15.0 mph 79 % 0.00 in 661 W/m2
13:13 52.7 °F 46.4 °F 30.05 in SE 8.0 mph 15.0 mph 79 % 0.00 in 656 W/m2
13:18 53.1 °F 46.7 °F 30.05 in SE 7.0 mph 12.0 mph 79 % 0.00 in 650 W/m2
13:23 53.2 °F 46.6 °F 30.05 in SE 8.0 mph 12.0 mph 78 % 0.00 in 635 W/m2
13:28 53.8 °F 47.1 °F 30.05 in SE 8.0 mph 13.0 mph 78 % 0.00 in 652 W/m2
13:33 54.1 °F 47.1 °F 30.04 in SE 7.0 mph 13.0 mph 77 % 0.00 in 654 W/m2
13:38 54.7 °F 47.3 °F 30.05 in SE 6.0 mph 11.0 mph 76 % 0.00 in 628 W/m2
13:43 54.7 °F 46.9 °F 30.04 in SSE 7.0 mph 13.0 mph 75 % 0.00 in 446 W/m2
13:48 54.7 °F 46.9 °F 30.04 in South 7.0 mph 13.0 mph 75 % 0.00 in 401 W/m2
13:53 54.9 °F 47.4 °F 30.04 in South 6.0 mph 11.0 mph 76 % 0.00 in 666 W/m2
13:58 55.6 °F 47.4 °F 30.04 in SE 5.0 mph 11.0 mph 74 % 0.00 in 598 W/m2
14:03 55.8 °F 47.6 °F 30.04 in SE 6.0 mph 12.0 mph 74 % 0.00 in 585 W/m2
14:08 55.9 °F 47.8 °F 30.04 in SE 6.0 mph 12.0 mph 74 % 0.00 in 612 W/m2
14:13 56.1 °F 47.6 °F 30.04 in SE 7.0 mph 12.0 mph 73 % 0.00 in 591 W/m2
14:19 56.7 °F 48.5 °F 30.04 in SE 7.0 mph 12.0 mph 74 % 0.00 in 638 W/m2
14:24 57.0 °F 48.4 °F 30.03 in SE 7.0 mph 11.0 mph 73 % 0.00 in 631 W/m2
14:29 57.6 °F 48.6 °F 30.03 in SSE 6.0 mph 11.0 mph 72 % 0.00 in 603 W/m2
14:34 57.7 °F 48.4 °F 30.03 in SSE 6.0 mph 11.0 mph 71 % 0.00 in 570 W/m2
14:39 57.7 °F 48.0 °F 30.02 in SSE 6.0 mph 12.0 mph 70 % 0.00 in 359 W/m2
14:44 57.7 °F 48.0 °F 30.02 in South 8.0 mph 14.0 mph 70 % 0.00 in 504 W/m2
14:49 57.6 °F 48.2 °F 30.02 in South 9.0 mph 14.0 mph 71 % 0.00 in 214 W/m2
14:54 57.6 °F 47.5 °F 30.02 in South 9.0 mph 16.0 mph 69 % 0.00 in 272 W/m2
14:59 57.2 °F 47.5 °F 30.02 in SSW 9.0 mph 16.0 mph 70 % 0.00 in 234 W/m2
15:04 56.7 °F 47.4 °F 30.02 in SSW 9.0 mph 18.0 mph 71 % 0.00 in 279 W/m2
15:09 56.5 °F 47.2 °F 30.02 in South 10.0 mph 18.0 mph 71 % 0.00 in 279 W/m2
15:14 56.5 °F 47.6 °F 30.02 in South 9.0 mph 16.0 mph 72 % 0.00 in 285 W/m2
15:19 56.5 °F 47.2 °F 30.02 in South 9.0 mph 19.0 mph 71 % 0.00 in 345 W/m2
15:24 56.3 °F 47.4 °F 30.02 in SSW 10.0 mph 19.0 mph 72 % 0.00 in 334 W/m2
15:29 55.9 °F 47.0 °F 30.02 in SSW 10.0 mph 16.0 mph 72 % 0.00 in 272 W/m2
15:34 55.9 °F 47.4 °F 30.02 in SSW 9.0 mph 16.0 mph 73 % 0.00 in 146 W/m2
15:39 55.8 °F 47.2 °F 30.02 in SSW 8.0 mph 14.0 mph 73 % 0.00 in 95 W/m2
15:44 55.6 °F 47.4 °F 30.02 in SSW 7.0 mph 11.0 mph 74 % 0.00 in 107 W/m2
15:49 55.4 °F 47.2 °F 30.02 in SSW 7.0 mph 14.0 mph 74 % 0.00 in 69 W/m2
15:54 55.4 °F 47.6 °F 30.02 in SSW 8.0 mph 18.0 mph 75 % 0.00 in 56 W/m2
15:59 55.2 °F 48.1 °F 30.02 in SSW 7.0 mph 18.0 mph 77 % 0.00 in 81 W/m2
16:04 54.9 °F 48.1 °F 30.02 in SSW 8.0 mph 18.0 mph 78 % 0.00 in 128 W/m2
16:09 54.7 °F 48.3 °F 30.02 in SSW 8.0 mph 18.0 mph 79 % 0.00 in 178 W/m2
16:14 54.5 °F 48.1 °F 30.02 in SSW 6.0 mph 10.0 mph 79 % 0.00 in 218 W/m2
16:19 54.5 °F 48.1 °F 30.02 in SSW 6.0 mph 10.0 mph 79 % 0.00 in 237 W/m2
16:24 54.7 °F 48.3 °F 30.02 in SSW 6.0 mph 11.0 mph 79 % 0.00 in 475 W/m2
16:29 55.0 °F 48.3 °F 30.01 in SSW 6.0 mph 11.0 mph 78 % 0.00 in 483 W/m2
16:34 55.6 °F 48.5 °F 30.01 in SSW 6.0 mph 12.0 mph 77 % 0.00 in 536 W/m2
16:39 56.1 °F 48.7 °F 30.01 in SSW 7.0 mph 12.0 mph 76 % 0.00 in 475 W/m2
16:44 56.7 °F 48.8 °F 30.01 in SSW 6.0 mph 12.0 mph 75 % 0.00 in 139 W/m2
16:49 56.5 °F 48.3 °F 30.01 in SSW 7.0 mph 12.0 mph 74 % 0.00 in 265 W/m2
16:54 56.5 °F 48.3 °F 30.01 in SSW 7.0 mph 12.0 mph 74 % 0.00 in 362 W/m2
16:59 56.8 °F 49.0 °F 30.01 in SSW 7.0 mph 12.0 mph 75 % 0.00 in 339 W/m2
17:04 57.4 °F 48.4 °F 30.01 in SSW 9.0 mph 14.0 mph 72 % 0.00 in 292 W/m2
17:09 57.4 °F 48.4 °F 30.01 in SW 9.0 mph 15.0 mph 72 % 0.00 in 69 W/m2
17:10 57.4 °F 48.4 °F 30.01 in SSW 10.0 mph 15.0 mph 72 % 0.00 in 60 W/m2
17:15 57.0 °F 48.1 °F 30.01 in SW 9.0 mph 20.0 mph 72 % 0.00 in 258 W/m2
17:20 56.8 °F 47.9 °F 30.00 in SW 9.0 mph 20.0 mph 72 % 0.00 in 95 W/m2
17:25 56.5 °F 47.6 °F 30.00 in SSW 9.0 mph 18.0 mph 72 % 0.00 in 77 W/m2
17:30 55.9 °F 47.4 °F 30.01 in SSW 9.0 mph 18.0 mph 73 % 0.00 in 72 W/m2
17:35 55.8 °F 47.6 °F 30.01 in SW 8.0 mph 15.0 mph 74 % 0.00 in 83 W/m2
17:37 55.8 °F 47.6 °F 30.01 in SW 8.0 mph 15.0 mph 74 % 0.00 in 77 W/m2
17:42 55.6 °F 47.4 °F 30.01 in SSW 8.0 mph 14.0 mph 74 % 0.00 in 148 W/m2
17:47 55.8 °F 48.0 °F 30.01 in SSW 7.0 mph 13.0 mph 75 % 0.00 in 204 W/m2
17:52 55.9 °F 47.8 °F 30.01 in SSW 8.0 mph 13.0 mph 74 % 0.00 in 100 W/m2
17:57 55.8 °F 48.0 °F 30.01 in SSW 8.0 mph 13.0 mph 75 % 0.00 in 104 W/m2
18:02 55.8 °F 48.0 °F 30.01 in SSW 7.0 mph 13.0 mph 75 % 0.00 in 54 W/m2
18:07 55.6 °F 47.8 °F 30.01 in SSW 8.0 mph 14.0 mph 75 % 0.00 in 44 W/m2
18:12 55.6 °F 47.8 °F 30.01 in SSW 7.0 mph 14.0 mph 75 % 0.00 in 35 W/m2
18:17 55.4 °F 47.6 °F 30.01 in SSW 7.0 mph 14.0 mph 75 % 0.00 in 51 W/m2
18:22 55.2 °F 47.8 °F 30.01 in SSW 7.0 mph 14.0 mph 76 % 0.00 in 46 W/m2
18:27 55.2 °F 47.4 °F 30.01 in SSW 7.0 mph 15.0 mph 75 % 0.00 in 35 W/m2
18:32 55.2 °F 47.1 °F 30.01 in SW 8.0 mph 15.0 mph 74 % 0.00 in 23 W/m2
18:37 55.2 °F 47.1 °F 30.01 in SSW 8.0 mph 18.0 mph 74 % 0.00 in 30 W/m2
18:42 55.2 °F 47.4 °F 30.01 in SSW 7.0 mph 18.0 mph 75 % 0.00 in 19 W/m2
18:47 55.0 °F 46.9 °F 30.01 in SW 8.0 mph 16.0 mph 74 % 0.00 in 25 W/m2
18:52 55.0 °F 47.3 °F 30.01 in SSW 8.0 mph 16.0 mph 75 % 0.00 in 25 W/m2
18:57 55.0 °F 47.3 °F 30.01 in SSW 7.0 mph 11.0 mph 75 % 0.00 in 21 W/m2
19:02 54.9 °F 47.1 °F 30.01 in SSW 7.0 mph 11.0 mph 75 % 0.00 in 18 W/m2
19:07 54.9 °F 47.1 °F 30.01 in SSW 7.0 mph 13.0 mph 75 % 0.00 in 18 W/m2
19:12 54.7 °F 47.3 °F 30.01 in SSW 7.0 mph 13.0 mph 76 % 0.00 in 14 W/m2
19:18 54.7 °F 47.3 °F 30.02 in SSW 6.0 mph 10.0 mph 76 % 0.00 in 9 W/m2
19:23 54.7 °F 47.3 °F 30.02 in SSW 5.0 mph 9.0 mph 76 % 0.00 in 7 W/m2
19:28 54.5 °F 47.1 °F 30.02 in SW 4.0 mph 8.0 mph 76 % 0.00 in 5 W/m2
19:33 54.5 °F 47.1 °F 30.02 in SSW 2.0 mph 8.0 mph 76 % 0.00 in 0 W/m2
19:38 54.3 °F 47.3 °F 30.02 in South 2.0 mph 9.0 mph 77 % 0.00 in 0 W/m2
19:43 54.3 °F 47.3 °F 30.02 in South 3.0 mph 9.0 mph 77 % 0.00 in 0 W/m2
19:48 54.3 °F 47.3 °F 30.02 in South 4.0 mph 10.0 mph 77 % 0.00 in 0 W/m2
19:53 54.3 °F 47.3 °F 30.02 in South 4.0 mph 10.0 mph 77 % 0.00 in 0 W/m2
19:58 54.1 °F 47.1 °F 30.02 in South 4.0 mph 10.0 mph 77 % 0.00 in 0 W/m2
20:03 54.1 °F 47.4 °F 30.02 in SSW 5.0 mph 10.0 mph 78 % 0.00 in 0 W/m2
20:08 54.0 °F 47.3 °F 30.02 in SSW 7.0 mph 13.0 mph 78 % 0.00 in 0 W/m2
20:13 54.0 °F 47.6 °F 30.02 in SW 7.0 mph 13.0 mph 79 % 0.00 in 0 W/m2
20:18 53.8 °F 47.4 °F 30.02 in SW 6.0 mph 12.0 mph 79 % 0.00 in 0 W/m2
20:23 53.6 °F 47.6 °F 30.02 in SSW 7.0 mph 12.0 mph 80 % 0.00 in 0 W/m2
20:28 53.4 °F 47.4 °F 30.02 in SSW 7.0 mph 13.0 mph 80 % 0.00 in 0 W/m2
20:33 53.4 °F 47.4 °F 30.02 in SSW 6.0 mph 13.0 mph 80 % 0.00 in 0 W/m2
20:38 53.2 °F 47.6 °F 30.02 in SSW 6.0 mph 9.0 mph 81 % 0.00 in 0 W/m2
20:43 53.2 °F 47.6 °F 30.02 in SSW 5.0 mph 9.0 mph 81 % 0.00 in 0 W/m2
20:48 53.1 °F 47.4 °F 30.02 in SSW 4.0 mph 9.0 mph 81 % 0.00 in 0 W/m2
20:53 52.9 °F 47.2 °F 30.02 in SSW 5.0 mph 10.0 mph 81 % 0.00 in 0 W/m2
20:58 52.9 °F 47.2 °F 30.02 in SSW 6.0 mph 10.0 mph 81 % 0.00 in 0 W/m2
21:03 52.7 °F 47.0 °F 30.03 in SSW 5.0 mph 9.0 mph 81 % 0.00 in 0 W/m2
21:08 52.5 °F 46.9 °F 30.02 in SW 4.0 mph 9.0 mph 81 % 0.00 in 0 W/m2
21:13 52.5 °F 46.9 °F 30.03 in SW 4.0 mph 7.0 mph 81 % 0.00 in 0 W/m2
21:18 52.3 °F 46.7 °F 30.03 in WSW 5.0 mph 9.0 mph 81 % 0.00 in 0 W/m2
21:23 52.3 °F 46.7 °F 30.03 in WSW 5.0 mph 9.0 mph 81 % 0.00 in 0 W/m2
21:28 52.2 °F 46.5 °F 30.03 in WSW 4.0 mph 10.0 mph 81 % 0.00 in 0 W/m2
21:33 52.2 °F 46.5 °F 30.02 in SW 5.0 mph 10.0 mph 81 % 0.00 in 0 W/m2
21:38 52.2 °F 46.5 °F 30.03 in SW 4.0 mph 8.0 mph 81 % 0.00 in 0 W/m2
21:43 52.2 °F 46.5 °F 30.03 in SW 4.0 mph 7.0 mph 81 % 0.00 in 0 W/m2
21:48 52.0 °F 46.3 °F 30.03 in SW 3.0 mph 8.0 mph 81 % 0.00 in 0 W/m2
21:53 52.0 °F 46.3 °F 30.03 in SW 3.0 mph 9.0 mph 81 % 0.00 in 0 W/m2
21:59 52.0 °F 46.3 °F 30.03 in SSW 4.0 mph 9.0 mph 81 % 0.00 in 0 W/m2
22:04 52.0 °F 46.7 °F 30.03 in SSW 4.0 mph 9.0 mph 82 % 0.00 in 0 W/m2
22:09 51.8 °F 46.5 °F 30.02 in South 4.0 mph 8.0 mph 82 % 0.00 in 0 W/m2
22:14 51.8 °F 46.5 °F 30.02 in South 3.0 mph 8.0 mph 82 % 0.00 in 0 W/m2
22:19 51.6 °F 46.3 °F 30.02 in South 4.0 mph 9.0 mph 82 % 0.00 in 0 W/m2
22:24 51.6 °F 46.6 °F 30.02 in SSW 4.0 mph 9.0 mph 83 % 0.00 in 0 W/m2
22:29 51.6 °F 46.6 °F 30.02 in SSW 4.0 mph 8.0 mph 83 % 0.00 in 0 W/m2
22:34 51.6 °F 46.6 °F 30.02 in SSW 5.0 mph 13.0 mph 83 % 0.00 in 0 W/m2
22:39 51.6 °F 46.6 °F 30.02 in SSW 4.0 mph 13.0 mph 83 % 0.00 in 0 W/m2
22:44 51.6 °F 46.6 °F 30.02 in SW 3.0 mph 7.0 mph 83 % 0.00 in 0 W/m2
22:49 51.6 °F 46.6 °F 30.02 in SSW 5.0 mph 11.0 mph 83 % 0.00 in 0 W/m2
22:54 51.6 °F 46.6 °F 30.03 in SW 6.0 mph 11.0 mph 83 % 0.00 in 0 W/m2
22:59 51.6 °F 46.6 °F 30.03 in SW 6.0 mph 11.0 mph 83 % 0.00 in 0 W/m2
23:00 51.6 °F 46.6 °F 30.03 in SW 6.0 mph 11.0 mph 83 % 0.00 in 0 W/m2
23:05 51.8 °F 46.8 °F 30.03 in SW 6.0 mph 10.0 mph 83 % 0.00 in 0 W/m2
23:07 51.8 °F 46.8 °F 30.03 in SW 6.0 mph 11.0 mph 83 % 0.00 in 0 W/m2
23:12 51.8 °F 46.8 °F 30.03 in SW 6.0 mph 11.0 mph 83 % 0.00 in 0 W/m2
23:17 51.8 °F 46.8 °F 30.03 in SW 6.0 mph 10.0 mph 83 % 0.00 in 0 W/m2
23:23 51.8 °F 46.8 °F 30.03 in SW 5.0 mph 9.0 mph 83 % 0.00 in 0 W/m2
23:28 51.8 °F 46.8 °F 30.03 in SSW 6.0 mph 11.0 mph 83 % 0.00 in 0 W/m2
23:33 51.8 °F 47.1 °F 30.03 in SSW 7.0 mph 11.0 mph 84 % 0.00 in 0 W/m2
23:38 51.6 °F 46.9 °F 30.03 in SSW 7.0 mph 14.0 mph 84 % 0.00 in 0 W/m2
23:43 51.6 °F 47.3 °F 30.03 in SSW 7.0 mph 14.0 mph 85 % 0.00 in 0 W/m2
23:48 51.4 °F 47.1 °F 30.03 in SSW 7.0 mph 11.0 mph 85 % 0.00 in 0 W/m2
23:53 51.4 °F 47.1 °F 30.03 in SSW 6.0 mph 11.0 mph 85 % 0.00 in 0 W/m2
23:58 51.3 °F 47.2 °F 30.03 in SSW 3.0 mph 7.0 mph 86 % 0.00 in 0 W/m2
Delerius-Weather
Compliments of Weather Underground - 2.25 mb

Data updates at regular intervals.